Regional Weather Roundup
Issued by NWS

Home | Current Version | Previous Version | Graphics & Text | Print | Product List | Glossary On
Versions: 1 2 3 4 5 6 7 8 9 10 11 12 13 14 15 16 17 18 19 20 21 22 23 24 25 26 27 28 29 30 31 32 33 34 35 36 37 38 39 40 41 42 43 44 45 46 47 48 49 50
000
ASUS43 KLSX 260407
RWRMO

WEATHER SUMMARY FOR MISSOURI
NATIONAL WEATHER SERVICE SPRINGFIELD MO
1100 PM CDT THU AUG 25 2016

NOTE: "FAIR" INDICATES FEW OR NO CLOUDS BELOW 12,000 FEET WITH NO
       SIGNIFICANT WEATHER AND/OR OBSTRUCTIONS TO VISIBILITY.
       CURRENT SKY AND/OR WEATHER CONDITIONS ARE NOT AVAILABLE FOR
       CHILLICOTHE AND FARMINGTON.

MOZ001>031-035>038-043-044-053-054-260500-
...NORTHERN AND WESTERN MISSOURI...

CITY           SKY/WX    TMP DP  RH WIND       PRES   REMARKS
KANSAS CTY INT CLOUDY    71  65  81 NE8       30.10S
KANSAS C DTWN  CLOUDY    74  68  81 NE8       30.09R
LEE`S SUMMIT   CLOUDY    73  69  87 NE9       30.10R
ST JOSEPH      PTCLDY    67  62  84 N8        30.11S
KIRKSVILLE     CLOUDY    69  64  84 N6        30.11S

$$
MOZ066>068-077>081-088>096-101>105-260500-
...SOUTHWEST MISSOURI...

CITY           SKY/WX    TMP DP  RH WIND       PRES   REMARKS
SPRINGFIELD    CLOUDY    76  67  73 S3        30.09S
JOPLIN         CLOUDY    70  67  90 E8        30.09R
BRANSON        MOCLDY    73  72  94 CALM      30.12R

$$
MOZ032>034-039>042-045>050-055>058-069>072-260500-
...CENTRAL MISSOURI...

CITY           SKY/WX    TMP DP  RH WIND       PRES   REMARKS
COLUMBIA       CLOUDY    75  73  93 W5        30.09R
JEFFERSON CITY CLOUDY    75  72  90 SW5       30.07R
ROLLA          CLOUDY    74  70  87 CALM      30.09R
SEDALIA        CLOUDY    77  74  90 N7        30.09R
WHITEMAN AFB   LGT RAIN  72  72 100 VRB2      30.07S
OSAGE BEACH    CLOUDY    71  69  93 NE3       30.10R

$$
MOZ051-052-059>065-260500-
...EAST CENTRAL MISSOURI...

CITY           SKY/WX    TMP DP  RH WIND       PRES   REMARKS
ST LOUIS INTL  MOCLDY    86  72  62 S7        30.05S HX  92
SPIRIT OF STL  MOCLDY    80  77  90 CALM      30.04R
ST CHARLES     TSTM      78  77  96 NW22      30.05R VSB 1

$$
MOZ072>076-082>087-097>100-106>115-260500-
...SOUTH CENTRAL AND SOUTHEAST MISSOURI...

CITY           SKY/WX    TMP DP  RH WIND       PRES   REMARKS
CAPE GIRARDEAU PTCLDY    75  73  93 CALM      30.06R
FARMINGTON     MOCLDY    77  73  87 CALM      30.10R
POPLAR BLUFF   CLOUDY    80  75  84 S5        30.06S
WEST PLAINS    CLOUDY    80  69  69 SW7       30.11S

$$


USA.gov is the U.S. government's official web portal to all federal, state and local government web resources and services.